Regional Weather Roundup
Issued by NWS

Home | Current Version | Previous Version | Text Only | Print | Product List | Glossary Off
Versions: 1 2 3 4 5 6 7 8 9 10 11 12 13 14 15 16 17 18 19 20 21 22 23 24 25 26 27 28 29 30 31 32 33 34 35 36 37 38 39 40 41 42 43 44 45 46 47 48 49 50

000
ASUS43 KMKX 061600
RWRWI

WISCONSIN REGIONAL WEATHER ROUNDUP
NATIONAL WEATHER SERVICE MILWAUKEE/SULLIVAN WI
1100 AM CDT MON JUL 06 2015

NOTE: "FAIR" INDICATES FEW OR NO CLOUDS BELOW 12,000 FEET WITH NO
SIGNIFICANT WEATHER AND/OR OBSTRUCTIONS TO VISIBILITY.

WIZ001-002-006>008-014>016-023>028-061700-
NORTHWEST WISCONSIN

CITY           SKY/WX    TMP DP  RH WIND       PRES   REMARKS
SUPERIOR ARPT  RAIN      60  59  96 NE7       29.89R
ASHLAND        LGT RAIN  61  60  97 N17G23    29.87R FOG
HAYWARD        HVY RAIN  68  66  93 CALM      29.83R FOG
SIREN          LGT RAIN  64  62  93 N15G28    29.84R
CUMBERLAND     LGT RAIN  68  64  88 SE8       29.83R
RICE LAKE      RAIN      68  66  93 SE3       29.84R
CHETEK         LGT RAIN  69  68  97 CALM      29.83R
LADYSMITH      LGT RAIN  71  68  91 SE3       29.85R
EAU CLAIRE     LGT RAIN  71  69  93 S6        29.81R
MENOMONIE      LGT RAIN  71  70  98 SE6       29.82R
NEW RICHMOND   CLOUDY    72  70  93 CALM      29.82R
OSCEOLA        RAIN      71  71 100 CALM      29.84R
$$

WIZ003>005-009-010-017-018-061700-
NORTH CENTRAL WISCONSIN

CITY           SKY/WX    TMP DP  RH WIND       PRES   REMARKS
MANITOWISH WTR DRIZZLE   67  67 100 S3        29.86R
ARBOR VITAE    DRIZZLE   69  68  94 S3        29.85S
WOODRUFF       DRIZZLE   69  68  94 S3        29.85S
RHINELANDER    RAIN      68  66  93 S7        29.89R FOG
EAGLE RIVER    DRIZZLE   66  66 100 S6        29.86S
LAND O LAKES   DRIZZLE   69  67  96 SE3       29.86F
PHILLIPS       DRIZZLE   68  68  99 SE5       29.84R
TOMAHAWK       RAIN      66  65  96 CALM      29.88R VSB 3/4
MEDFORD        CLOUDY    67  67  99 SE9       29.84F FOG
MERRILL        RAIN      67  67 100 S6        29.88R VSB 1
$$

WIZ029-030-035-036-043>047-061700-
CENTRAL WISCONSIN

CITY           SKY/WX    TMP DP  RH WIND       PRES   REMARKS
WAUSAU         LGT RAIN  69  67  93 SE7       29.85F FOG
MOSINEE        HVY RAIN  68  68 100 SE6       29.88F VSB 1
MARSHFIELD     CLOUDY    72  67  84 S6        29.84F
STEVENS POINT  RAIN      67  67  97 S6        29.89S
WAUPACA        CLOUDY    74  72  93 SW7       29.89R FOG
WAUTOMA        NOT AVBL
WISC RAPIDS    CLOUDY    72  68  87 S8        29.86F FOG
CAMP DOUGLAS   NOT AVBL
$$

WIZ011>013-019>022-031-037>040-048>050-061700-
NORTHEAST WISCONSIN

CITY           SKY/WX    TMP DP  RH WIND       PRES   REMARKS
ANTIGO         HVY RAIN  66  65  99 S6        29.90R VSB 1
SHAWANO        LGT RAIN  73  69  86 S5        29.88S
OCONTO         FAIR      76  68  76 S10       29.86F
STURGEON BAY   FAIR      72  64  78 S12       29.91S
GREEN BAY      PTSUNNY   78  68  71 S14       29.87F HAZE    HX  80
MANITOWOC      NOT AVBL
APPLETON       RAIN      73  66  78 SW8       29.90R
CLINTONVILLE   LGT RAIN  70  68  94 SE6       29.88R
OSHKOSH        LGT RAIN  78  69  73 SW13G22   29.89R HX  80
$$

WIZ032>034-041-042-053>061-061700-
SOUTHWEST WISCONSIN

CITY           SKY/WX    TMP DP  RH WIND       PRES   REMARKS
LA CROSSE      PTSUNNY   75  71  87 S8        29.82F
SPARTA         FAIR      74  70  88 S7        29.86F
VIROQUA        CLOUDY    73  73 100 SW9       29.89F
BOSCOBEL       PTSUNNY   75  71  87 S6        29.88F
PRAIRIE DU CHI LGT RAIN  73  67  81 CALM      29.87F
PLATTEVILLE    CLOUDY    73  70  90 SW9       29.95S
$$

WIZ056-057-062-063-064-067-068-061700-
SOUTH CENTRAL WISCONSIN

CITY           SKY/WX    TMP DP  RH WIND       PRES   REMARKS
REEDSBURG      PTSUNNY   72  70  94 SW13      29.89S FOG
BARABOO/DELLS  FAIR      71  69  91 SW10      29.89F FOG
LONE ROCK      PTSUNNY   75  70  84 SW7       29.91S HAZE
MINERAL POINT  CLOUDY    73  70  88 SW9       29.94S
MADISON        TSTM      73  70  90 VRB3      29.93R FOG
MIDDLETON      CLOUDY    74  72  91 SW9       29.94R
WATERTOWN      FAIR      78  74  88 S8G16     29.90S
MONROE         CLOUDY    73  70  88 SW16G23   29.95R
JANESVILLE     PTSUNNY   81  70  69 SW15G21   29.93R HX  84
$$

WIZ051-052-058>065-066-070>072-061700-
SOUTHEAST WISCONSIN

CITY           SKY/WX    TMP DP  RH WIND       PRES   REMARKS
MILWAUKEE      PTSUNNY   81  68  64 S14G23    29.93F HX  84
WAUKESHA       SUNNY     77  64  65 S7        29.93F
MILWAUKEE/TIMM SUNNY     79  64  61 S12       29.93F HX  81
RACINE         FAIR      76  65  68 S10       29.96F HAZE
BURLINGTON     FAIR      78  68  70 S9        29.93F HX  80
KENOSHA        FAIR      81  69  67 S13G21    29.95F HX  84
FOND DU LAC    PTSUNNY   79  69  71 SW13G23   29.90R HX  81
SHEBOYGAN      FAIR      76  67  73 S12       29.91F HAZE
WEST BEND      FAIR      77  64  65 S12G17    29.91F
JUNEAU         FAIR      77  69  76 S16       29.92S
$$

LSZ147-162-061700-
LAKE SUPERIOR

STATION/POSITION TIME  TEMP    WIND        PRES    WAVE
                       AIR SEA DIR/SP/G            HT/PER
                 (UTC) (F)     (DEG/KT/KT) (MB)    (FT/S)
W MID LAKE BUOY  1450   48 39   20/ 12/ 12 1010.7F   1
DEVILS ISLAND    1500   60      20/ 13/ 15 1011.0S
PORT WING        1500   60      10/ 13/ 16   N/A
SAXON HARBOR     1500   63      20/  5/  7 1010.5
$$

LMZ867-665-643>646-061700-
LAKE MICHIGAN

STATION/POSITION TIME  TEMP    WIND        PRES    WAVE
                       AIR SEA DIR/SP/G            HT/PER
                 (UTC) (F)     (DEG/KT/KT) (MB)    (FT/S)
CHAMBERS ISLAND  1500   72     150/  5/ 13 1011.9S
S GREEN BAY BUOY 1500   72 69  180/ 12/ 14 1013.1S
N MID LAKE BUOY  1450   59 55  190/ 16/ 19 1012.2F   2/ 4
NORTHPORT PIER   1500   66     150/ 10/ 13 1012.2S
SISTER BAY       1514   74     170/ 12/ 16   N/A
ALGOMA LAKESHORE 1511          210/ 12/ 14   N/A
KEWAUNEE LAKESHO 1500   61     180/ 15/ 17 1012.1F
SHEBOYGAN LAKESH 1500   64     180/ 18/ 19 1013.1F
PORT WASHINGTON  1500   67     170/  7/ 11 1014.2F
ATWATER BUOY     1500   64 59  160/ 10/ 10 1015.5R
MILWAUKEE LAKESH 1500   64     150/ 12/ 14   N/A
KENOSHA   LAKESH 1500   65     170/ 13/ 15 1014.2S
$$

TC  - TEMPERATURE IN CELSIUS
VSB - VISIBILITY IN STATUTE MILES
WCI - WIND CHILL INDEX
HX  - HEAT INDEX



USA.gov is the U.S. government's official web portal to all federal, state and local government web resources and services.